Morris, MN

12:27 AM CDT on October 21, 2017 (GMT -0500)
Morris Municipal

Weather History for KMOX - November, 2013

Change the Weather History Date:

Saturday, November 23, 2013

  Actual Average Record
Temperature  
Mean Temperature 6 °F -  
Max Temperature 14 °F 32 °F 55 °F (2006)
Min Temperature -2 °F 17 °F -2 °F (2013)
Degree Days  
Heating Degree Days 59    
Moisture  
Dew Point -2 °F    
Average Humidity 75    
Maximum Humidity 85    
Minimum Humidity 57    
Precipitation  
Precipitation 0.00 in - - ()
Sea Level Pressure  
Sea Level Pressure 30.77 in    
Wind  
Wind Speed 12 mph (NW)    
Max Wind Speed 21 mph    
Max Gust Speed 25 mph    
Visibility 10 miles    
Events      
Averages and records for this station are not official NWS values.
T = Trace of Precipitation, MM = Missing Value Source: NWS Daily Summary

Daily Weather History Graph

Daily Weather History Graph

Search for Another Location

Airport or City:

Trip Planner

Search our weather history database for the weather conditions in past years. The results will help you decide how hot, cold, wet, or windy it might be!

Date:

Astronomy

Nov. 23, 2013 Rise Set
Actual Time 7:34 AM CST 4:46 PM CST
Civil Twilight 7:01 AM CST 5:19 PM CST
Nautical Twilight 6:24 AM CST 5:55 PM CST
Astronomical Twilight 5:49 AM CST 6:30 PM CST
Moon 10:22 PM CST (11/23) 11:45 AM CST (11/23)
Length of Visible Light 10h 17m
Length of Day
9h 11m
Waning Gibbous, 69% of the Moon is Illuminated
Nov 23
Waning Gibbous
Nov 25
Last Quarter
Dec 2
New
Dec 9
First Quarter
Dec 17
Full

Hourly Weather History & Observations

Time (CST) Temp. Windchill Dew Point Humidity Pressure Visibility Wind Dir Wind Speed Gust Speed Precip Events Conditions
12:04 AM 5.0 °F -15.7 °F -0.4 °F 78% 30.72 in 10.0 mi NNW 20.7 mph 25.3 mph N/A   Clear
12:24 AM 3.2 °F -17.6 °F -0.4 °F 85% 30.73 in 10.0 mi NNW 19.6 mph 23.0 mph N/A   Clear
12:44 AM 3.2 °F -15.9 °F -0.4 °F 85% 30.73 in 10.0 mi NNW 16.1 mph 23.0 mph N/A   Clear
1:04 AM 3.2 °F -16.5 °F -2.2 °F 78% 30.74 in 10.0 mi NNW 17.3 mph - N/A   Clear
1:24 AM 3.2 °F -16.5 °F -2.2 °F 78% 30.74 in 10.0 mi NNW 17.3 mph 21.9 mph N/A   Clear
1:44 AM 3.2 °F -15.9 °F -2.2 °F 78% 30.74 in 10.0 mi NNW 16.1 mph - N/A   Clear
2:04 AM 3.2 °F -17.1 °F -2.2 °F 78% 30.75 in 10.0 mi NNW 18.4 mph - N/A   Clear
2:24 AM 1.4 °F -19.4 °F -2.2 °F 85% 30.75 in 10.0 mi NNW 18.4 mph 23.0 mph N/A   Clear
2:44 AM 1.4 °F -18.2 °F -2.2 °F 85% 30.76 in 10.0 mi NNW 16.1 mph 23.0 mph N/A   Clear
3:04 AM 1.4 °F -18.2 °F -2.2 °F 85% 30.76 in 10.0 mi NNW 16.1 mph - N/A   Clear
3:24 AM 1.4 °F -18.2 °F -2.2 °F 85% 30.76 in 10.0 mi NNW 16.1 mph - N/A   Clear
3:44 AM 1.4 °F -18.2 °F -2.2 °F 85% 30.77 in 10.0 mi North 16.1 mph - N/A   Clear
4:04 AM 1.4 °F -16.9 °F -4.0 °F 78% 30.77 in 10.0 mi North 13.8 mph - N/A   Clear
4:24 AM 1.4 °F -16.9 °F -4.0 °F 78% 30.78 in 10.0 mi North 13.8 mph - N/A   Clear
4:44 AM -0.4 °F -16.7 °F -4.0 °F 85% 30.79 in 10.0 mi North 10.4 mph 16.1 mph N/A   Clear
5:04 AM -0.4 °F -14.7 °F -5.8 °F 78% 30.80 in 10.0 mi NNW 8.1 mph - N/A   Clear
5:24 AM -0.4 °F -14.7 °F -5.8 °F 78% 30.80 in 10.0 mi NW 8.1 mph - N/A   Clear
5:44 AM -0.4 °F -13.4 °F -5.8 °F 78% 30.82 in 10.0 mi NW 6.9 mph - N/A   Clear
6:04 AM -2.2 °F -15.6 °F -5.8 °F 85% 30.83 in 10.0 mi NW 6.9 mph - N/A   Clear
6:24 AM -2.2 °F -14.2 °F -5.8 °F 85% 30.83 in 10.0 mi NW 5.8 mph - N/A   Clear
6:44 AM -2.2 °F -14.2 °F -5.8 °F 85% 30.84 in 10.0 mi NW 5.8 mph - N/A   Clear
7:04 AM -2.2 °F -16.8 °F -7.6 °F 78% 30.84 in 10.0 mi NW 8.1 mph - N/A   Clear
7:24 AM -2.2 °F -18.0 °F -7.6 °F 78% 30.84 in 10.0 mi WNW 9.2 mph - N/A   Clear
7:44 AM -2.2 °F -15.6 °F -7.6 °F 78% 30.85 in 10.0 mi WNW 6.9 mph - N/A   Clear
8:04 AM -2.2 °F -15.6 °F -5.8 °F 85% 30.86 in 10.0 mi WNW 6.9 mph - N/A   Clear
8:24 AM -0.4 °F -15.7 °F -5.8 °F 78% 30.86 in 10.0 mi WNW 9.2 mph - N/A   Clear
8:44 AM 1.4 °F -16.9 °F -4.0 °F 78% 30.87 in 10.0 mi WNW 13.8 mph - N/A   Clear
9:04 AM 1.4 °F -17.6 °F -2.2 °F 85% 30.88 in 10.0 mi WNW 15.0 mph - N/A   Clear
9:24 AM 1.4 °F -14.5 °F -2.2 °F 85% 30.88 in 10.0 mi WNW 10.4 mph - N/A   Clear
9:44 AM 3.2 °F -13.9 °F -2.2 °F 78% 30.87 in 10.0 mi WNW 12.7 mph - N/A   Clear
10:04 AM 3.2 °F -13.9 °F -0.4 °F 85% 30.88 in 10.0 mi NW 12.7 mph - N/A   Clear
10:24 AM 6.8 °F -9.3 °F -0.4 °F 72% 30.88 in 10.0 mi WNW 12.7 mph - N/A   Clear
10:44 AM 6.8 °F -8.6 °F 1.4 °F 79% 30.87 in 10.0 mi NW 11.5 mph - N/A   Clear
11:04 AM 8.6 °F -5.5 °F 1.4 °F 73% 30.87 in 10.0 mi NW 10.4 mph - N/A   Clear
11:24 AM 8.6 °F -5.5 °F 1.4 °F 73% 30.86 in 10.0 mi NW 10.4 mph - N/A   Clear
11:44 AM 10.4 °F -2.4 °F 1.4 °F 67% 30.85 in 10.0 mi NW 9.2 mph - N/A   Clear
12:04 PM 10.4 °F -2.4 °F 3.2 °F 73% 30.83 in 10.0 mi NNW 9.2 mph - N/A   Clear
12:24 PM 12.2 °F -0.2 °F 3.2 °F 67% 30.83 in 10.0 mi NW 9.2 mph - N/A   Clear
12:44 PM 12.2 °F 1.7 °F 1.4 °F 62% 30.82 in 10.0 mi NW 6.9 mph - N/A   Clear
1:04 PM 12.2 °F -0.2 °F 3.2 °F 67% 30.82 in 10.0 mi WNW 9.2 mph - N/A   Clear
1:24 PM 12.2 °F -1.8 °F 1.4 °F 62% 30.82 in 10.0 mi WNW 11.5 mph - N/A   Scattered Clouds
1:44 PM 14.0 °F 1.2 °F 1.4 °F 57% 30.81 in 10.0 mi NNW 10.4 mph - N/A   Scattered Clouds
2:04 PM 14.0 °F 1.2 °F 1.4 °F 57% 30.80 in 10.0 mi NNW 10.4 mph - N/A   Clear
2:24 PM 14.0 °F 3.9 °F 1.4 °F 57% 30.79 in 10.0 mi NW 6.9 mph - N/A   Clear
2:44 PM 14.0 °F 5.1 °F 1.4 °F 57% 30.79 in 10.0 mi NW 5.8 mph - N/A   Clear
3:04 PM 14.0 °F 3.9 °F 1.4 °F 57% 30.78 in 10.0 mi NNW 6.9 mph - N/A   Clear
3:24 PM 12.2 °F 1.7 °F 1.4 °F 62% 30.78 in 10.0 mi NW 6.9 mph - N/A   Clear
3:44 PM 12.2 °F 1.7 °F 1.4 °F 62% 30.77 in 10.0 mi WNW 6.9 mph - N/A   Clear
4:04 PM 12.2 °F 6.1 °F 1.4 °F 62% 30.76 in 10.0 mi NNW 3.5 mph - N/A   Clear
4:24 PM 10.4 °F 2.2 °F 1.4 °F 67% 30.76 in 10.0 mi WNW 4.6 mph - N/A   Clear
4:44 PM 10.4 °F - -0.4 °F 62% 30.76 in 10.0 mi Calm Calm - N/A   Clear
5:04 PM 8.6 °F - -0.4 °F 67% 30.75 in 10.0 mi Calm Calm - N/A   Clear
5:24 PM 8.6 °F - -0.4 °F 67% 30.74 in 10.0 mi Calm Calm - N/A   Clear
5:44 PM 8.6 °F - -0.4 °F 67% 30.74 in 10.0 mi Calm Calm - N/A   Clear
6:04 PM 6.8 °F - -0.4 °F 72% 30.73 in 10.0 mi Calm Calm - N/A   Clear
6:24 PM 6.8 °F - -0.4 °F 72% 30.73 in 10.0 mi Calm Calm - N/A   Clear
6:44 PM 6.8 °F -0.1 °F -2.2 °F 67% 30.72 in 10.0 mi East 3.5 mph - N/A   Clear
7:04 PM 3.2 °F -6.2 °F -2.2 °F 78% 30.72 in 10.0 mi East 4.6 mph - N/A   Clear
7:24 PM 3.2 °F -7.8 °F -2.2 °F 78% 30.70 in 10.0 mi East 5.8 mph - N/A   Clear
7:44 PM 3.2 °F -7.8 °F -2.2 °F 78% 30.70 in 10.0 mi East 5.8 mph - N/A   Clear
8:04 PM 3.2 °F -6.2 °F -2.2 °F 78% 30.70 in 10.0 mi ESE 4.6 mph - N/A   Clear
8:24 PM 3.2 °F -6.2 °F -2.2 °F 78% 30.69 in 10.0 mi SE 4.6 mph - N/A   Clear
8:44 PM 1.4 °F -9.9 °F -2.2 °F 85% 30.69 in 10.0 mi SE 5.8 mph - N/A   Clear
9:04 PM 1.4 °F -9.9 °F -2.2 °F 85% 30.67 in 10.0 mi SE 5.8 mph - N/A   Clear
9:24 PM 1.4 °F -11.3 °F -2.2 °F 85% 30.67 in 10.0 mi SSE 6.9 mph - N/A   Clear
9:44 PM 1.4 °F -12.5 °F -2.2 °F 85% 30.66 in 10.0 mi SSE 8.1 mph - N/A   Clear
10:04 PM 1.4 °F -11.3 °F -2.2 °F 85% 30.65 in 10.0 mi SSE 6.9 mph - N/A   Clear
10:24 PM 3.2 °F -9.1 °F -2.2 °F 78% 30.64 in 10.0 mi SE 6.9 mph - N/A   Clear
10:44 PM 3.2 °F -7.8 °F -2.2 °F 78% 30.64 in 10.0 mi SSE 5.8 mph - N/A   Clear
11:04 PM 3.2 °F -9.1 °F -2.2 °F 78% 30.63 in 10.0 mi SE 6.9 mph - N/A   Clear
11:24 PM 3.2 °F -10.3 °F -2.2 °F 78% 30.61 in 10.0 mi SSE 8.1 mph - N/A   Clear
11:44 PM 3.2 °F -9.1 °F -2.2 °F 78% 30.63 in 10.0 mi SE 6.9 mph - N/A   Clear